[[{"header":{"parameterUnit":"m.s-1","parameterCategory":1,"la1":30.2991,"la2":30.254,"lo1":-89.0895,"lo2":-89.0444,"dy":0.0017,"dx":0.0017,"nx":28,"ny":28,"refTime":"2023-09-25T09:00:00:Z","depth":0,"parameterNumber":2,"parameterNumberName":"U-component_of_WINDS"},"data":[0,0,0,0,0,0,0,0,0,0,0,0,0,0,0,0,0,0,0,0,0,0,0,0,0,0,0,0,0,0,0,0,0,0,0,0,0,0,0,0,0,0,0,0,0,0,0,0,0,0,0,0,0,0,0,0,0,0,-1.5003,-1.5004,0,-1.5068,-1.5069,-1.507,-1.5064,-1.5063,-1.5062,-1.5061,-1.5128,-1.513,-1.5133,0,0,0,0,0,0,0,0,0,0,0,0,0,-1.4872,-1.4875,-1.5003,-1.5004,-1.5004,-1.5068,-1.5069,-1.507,-1.5065,-1.5063,-1.5062,-1.5061,-1.5127,-1.513,-1.5133,0,0,0,0,0,0,0,0,0,0,0,0,0,-1.4932,-1.4875,-1.5003,-1.5009,-1.5011,-1.5068,-1.5069,-1.507,-1.5065,-1.5063,-1.5062,-1.506,-1.5126,-1.513,-1.5134,-1.5188,0,0,-1.5146,-1.5148,0,0,0,0,0,0,0,0,-1.4929,-1.4937,-1.5008,-1.5009,-1.5011,-1.5057,-1.5047,-1.511,-1.5065,-1.5044,-1.5061,-1.506,-1.5105,-1.5111,-1.5126,-1.5191,-1.5194,-1.5146,-1.5149,-1.515,-1.5151,0,0,0,0,0,0,0,-1.4925,-1.4934,-1.5029,-1.5009,-1.501,-1.5009,-1.5016,-1.5059,-1.5082,-1.5046,-1.5046,-1.5054,-1.5106,-1.5122,-1.5128,-1.5195,-1.5146,-1.515,-1.5152,-1.5154,-1.5308,-1.531,0,0,0,0,0,0,-1.4919,-1.4931,-1.5027,-1.5031,-1.4965,-1.5012,-1.502,-1.5043,-1.5082,-1.5086,-1.5055,-1.5053,-1.5116,-1.5123,-1.513,-1.5197,-1.515,-1.5154,-1.5156,-1.5306,-1.5308,-1.531,0,0,0,0,0,0,-1.4916,-1.4928,-1.5024,-1.4981,-1.4993,-1.5016,-1.5042,-1.5045,-1.5062,-1.5088,-1.5092,-1.5068,-1.5115,-1.5124,-1.5174,-1.5199,-1.5156,-1.516,-1.5304,-1.5307,-1.5309,-1.5331,0,0,0,0,0,0,-1.4913,-1.4927,-1.4948,-1.4981,-1.4995,-1.5067,-1.5044,-1.5048,-1.5069,-1.5068,-1.5102,-1.5106,-1.5115,-1.5168,-1.5178,-1.5204,-1.5163,-1.5302,-1.5305,-1.5308,-1.5328,-1.5334,-1.5339,0,0,0,0,0,-1.4908,-1.4952,-1.4949,-1.4961,-1.5022,-1.5069,-1.5077,-1.5086,-1.5071,-1.5093,-1.511,-1.5105,-1.5194,-1.5173,-1.5184,-1.5212,-1.5301,-1.5305,-1.5308,-1.5326,-1.5333,-1.5339,0,0,0,0,0,0,-1.4921,-1.4956,-1.4954,-1.501,-1.5036,-1.5068,-1.5095,-1.5093,-1.5125,-1.5122,-1.5132,-1.514,-1.519,-1.5206,-1.5181,-1.5267,-1.5246,-1.5252,-1.5255,-1.5262,-1.5267,-1.5263,-1.5166,0,0,0,0,0,-1.493,-1.4965,-1.4994,-1.504,-1.5053,-1.5072,-1.5092,-1.5097,-1.5125,-1.5137,-1.5157,-1.5184,-1.5218,-1.5241,-1.5274,-1.533,-1.5338,-1.5354,-1.536,-1.5364,-1.537,-1.5401,-1.541,-1.5323,-1.5323,-1.5323,0,0,-1.495,-1.4973,-1.4995,-1.5043,-1.5064,-1.51,-1.5081,-1.512,-1.5147,-1.5142,-1.5191,-1.5206,-1.5237,-1.529,-1.5315,-1.5305,-1.5395,-1.5369,-1.5372,-1.5376,-1.5406,-1.5414,-1.5422,-1.5325,-1.5325,-1.5324,0,0,-1.5004,-1.5025,-1.5066,-1.5088,-1.512,-1.5132,-1.5142,-1.5174,-1.5184,-1.5232,-1.523,-1.5261,-1.532,-1.5342,-1.5361,-1.5423,-1.542,-1.5433,-1.5462,-1.5493,-1.55,-1.5506,-1.5529,-1.5537,-1.5439,-1.5439,-1.5439,0,-1.5025,-1.5079,-1.5088,-1.5127,-1.5148,-1.5146,-1.5187,-1.5208,-1.5249,-1.5264,-1.5252,-1.5326,-1.5346,-1.5405,-1.542,-1.5435,-1.5447,-1.5431,-1.5498,-1.5504,-1.551,-1.5532,-1.5541,-1.544,-1.544,-1.544,-1.544,0,-1.5103,-1.514,-1.517,-1.521,-1.5234,-1.5275,-1.5289,-1.5313,-1.5315,-1.5328,-1.5377,-1.5402,-1.544,-1.5454,-1.5456,-1.5513,-1.5506,-1.5496,-1.5475,-1.552,-1.5541,-1.555,-1.5442,-1.5442,-1.5441,-1.5441,0,0,-1.517,-1.5213,-1.5224,-1.5242,-1.5277,-1.5306,-1.5346,-1.5383,-1.5404,-1.5431,-1.5466,-1.5515,-1.5506,-1.5527,-1.5532,-1.5559,-1.5607,-1.5546,-1.5547,-1.5557,-1.5672,-1.5681,-1.569,-1.5605,-1.5606,-1.5608,-1.567,0,-1.5229,-1.53,-1.5308,-1.5371,-1.5406,-1.5403,-1.5438,-1.5463,-1.5476,-1.5507,-1.552,-1.5556,-1.5541,-1.5554,-1.558,-1.5596,-1.5631,-1.5591,-1.5637,-1.5639,-1.5631,-1.5701,-1.571,-1.5768,-1.5678,-1.5679,-1.568,0,-1.5308,-1.5338,-1.5405,-1.5435,-1.545,-1.5481,-1.5516,-1.5545,-1.5573,-1.5581,-1.5604,-1.5606,-1.5647,-1.5623,-1.5679,-1.5652,-1.5671,-1.5682,-1.5684,-1.569,-1.5664,-1.5711,-1.5787,-1.5796,-1.5693,-1.5692,-1.5691,0,-1.5351,-1.5409,-1.5456,-1.5472,-1.5508,-1.553,-1.5545,-1.5572,-1.5594,-1.5624,-1.5638,-1.5672,-1.5691,-1.5718,-1.5728,-1.5709,-1.5784,-1.5761,-1.5792,-1.5792,-1.581,-1.5809,-1.5892,-1.5819,-1.5819,-1.5819,-1.5819,0,-1.5418,-1.5459,-1.5477,-1.5506,-1.5552,-1.556,-1.5606,-1.562,-1.5644,-1.5676,-1.5675,-1.5705,-1.5716,-1.5748,-1.5756,-1.5802,-1.581,-1.5818,-1.582,-1.5819,-1.5818,-1.5833,-1.583,-1.5821,-1.5821,-1.582,-1.582,0,-1.5475,-1.5488,-1.554,-1.5569,-1.5578,-1.561,-1.5635,-1.5664,-1.5675,-1.5716,-1.5726,-1.5744,-1.5782,-1.5794,-1.5839,-1.5845,-1.5899,-1.5897,-1.589,-1.5891,-1.5922,-1.592,-1.6019,-1.6032,-1.5949,-1.595,-1.595,0,-1.5518,-1.555,-1.5582,-1.5603,-1.562,-1.5655,-1.5677,-1.5686,-1.5709,-1.5743,-1.5767,-1.5804,-1.5834,-1.5894,-1.5912,-1.5946,-1.5946,-1.5978,-1.5951,-1.5949,-1.5948,-1.5947,-1.595,-1.5984,-1.5984,-1.5985,-1.5986,0,-1.5592,-1.5597,-1.5629,-1.5664,-1.569,-1.5718,-1.5744,-1.5762,-1.5774,-1.58,-1.5839,-1.5862,-1.5908,-1.5945,-1.598,-1.5996,-1.5994,-1.5994,-1.6003,-1.6004,-1.5999,-1.6003,-1.5906,-1.5992,-1.5991,-1.5991,-1.5991,-1.599,-1.5645,-1.5673,-1.57,-1.5736,-1.5757,-1.5781,-1.581,-1.5824,-1.5856,-1.5895,-1.5898,-1.5939,-1.5966,-1.6013,-1.603,-1.6063,-1.6054,-1.6067,-1.6071,-1.6074,-1.6077,-1.5992,-1.6069,-1.6069,-1.6069,-1.6068,-1.6068,0,-1.5721,-1.5738,-1.577,-1.5807,-1.5836,-1.5829,-1.5858,-1.5882,-1.5919,-1.5944,-1.5973,-1.6017,-1.6053,-1.6073,-1.6108,-1.6131,-1.613,-1.614,-1.6139,-1.6143,-1.6083,-1.6072,-1.614,-1.614,-1.614,-1.614,-1.6139,-1.6139,-1.5764,-1.5811,-1.5819,-1.5877,-1.5893,-1.5934,-1.5951,-1.5974,-1.5994,-1.6043,-1.6072,-1.6085,-1.6108,-1.6145,-1.6177,-1.6182,-1.6196,-1.6207,-1.6211,-1.6155,-1.6147,-1.614,-1.613,-1.6209,-1.6209,-1.6269,-1.627,-1.627]},{"header":{"parameterUnit":"m.s-1","parameterCategory":1,"la1":30.2991,"la2":30.254,"lo1":-89.0895,"lo2":-89.0444,"dy":0.0017,"dx":0.0017,"nx":28,"ny":28,"refTime":"2023-09-25T09:00:00:Z","depth":0,"parameterNumber":3,"parameterNumberName":"V-component_of_WINDS"},"data":[0,0,0,0,0,0,0,0,0,0,0,0,0,0,0,0,0,0,0,0,0,0,0,0,0,0,0,0,0,0,0,0,0,0,0,0,0,0,0,0,0,0,0,0,0,0,0,0,0,0,0,0,0,0,0,0,0,0,1.9181,1.918,0,1.9138,1.9137,1.9137,1.905,1.9048,1.9047,1.9045,1.8999,1.8999,1.9,0,0,0,0,0,0,0,0,0,0,0,0,0,1.9189,1.9189,1.9181,1.918,1.918,1.9138,1.9137,1.9136,1.905,1.9048,1.9046,1.9044,1.8999,1.8999,1.9,0,0,0,0,0,0,0,0,0,0,0,0,0,1.9169,1.9189,1.9181,1.9132,1.9127,1.9138,1.9137,1.9136,1.9051,1.9048,1.9046,1.9043,1.8999,1.8999,1.9,1.9055,0,0,1.9002,1.9002,0,0,0,0,0,0,0,0,1.9171,1.9169,1.9139,1.9135,1.913,1.9097,1.9123,1.9109,1.9051,1.908,1.9045,1.9042,1.9034,1.9031,1.9029,1.9052,1.9051,1.9002,1.9002,1.9002,1.9002,0,0,0,0,0,0,0,1.9172,1.9171,1.9163,1.9139,1.9133,1.9112,1.9106,1.912,1.9071,1.9077,1.9071,1.9067,1.903,1.9028,1.9027,1.905,1.9002,1.9002,1.9002,1.9003,1.9118,1.9121,0,0,0,0,0,0,1.9181,1.9172,1.9165,1.9162,1.9144,1.9114,1.9108,1.911,1.9071,1.9063,1.9069,1.9063,1.9029,1.9026,1.9025,1.9086,1.9002,1.9003,1.9003,1.9116,1.9119,1.9122,0,0,0,0,0,0,1.9181,1.9181,1.9167,1.9166,1.9162,1.9116,1.912,1.911,1.9108,1.9065,1.9056,1.9076,1.9026,1.9024,1.9048,1.9084,1.9003,1.9004,1.9112,1.9117,1.912,1.9211,0,0,0,0,0,0,1.9182,1.9182,1.9201,1.9167,1.9163,1.9191,1.9122,1.9111,1.9109,1.9101,1.9069,1.9061,1.9024,1.9048,1.9049,1.9083,1.9004,1.9109,1.9114,1.9119,1.9204,1.9217,1.9228,0,0,0,0,0,1.9182,1.9228,1.9203,1.9202,1.9186,1.9193,1.9191,1.9148,1.9113,1.9132,1.9105,1.9062,1.9081,1.9051,1.9052,1.9086,1.9106,1.9113,1.9119,1.9199,1.9215,1.9228,0,0,0,0,0,0,1.9266,1.9222,1.9194,1.9229,1.9216,1.9178,1.9201,1.9166,1.9161,1.9153,1.91,1.9094,1.9125,1.9108,1.9077,1.9138,1.9087,1.9093,1.9147,1.9162,1.9174,1.9176,1.9004,0,0,0,0,0,1.9289,1.9298,1.9259,1.9294,1.9289,1.9247,1.9248,1.9217,1.92,1.9194,1.9168,1.9154,1.9156,1.9159,1.9159,1.9203,1.9194,1.9227,1.9239,1.9249,1.9255,1.9278,1.9292,1.9142,1.9142,1.9142,0,0,1.9336,1.9313,1.9321,1.9311,1.9296,1.9307,1.9243,1.9256,1.9264,1.9196,1.9217,1.9199,1.9179,1.9214,1.9228,1.92,1.9295,1.9257,1.9266,1.9265,1.9285,1.93,1.9312,1.9146,1.9146,1.9145,0,0,1.9426,1.941,1.9437,1.9426,1.9406,1.9378,1.9385,1.9354,1.9339,1.9361,1.931,1.9319,1.9324,1.9312,1.9307,1.9398,1.9358,1.94,1.9462,1.9485,1.9497,1.9507,1.9539,1.9551,1.9406,1.9406,1.9406,0,1.9486,1.95,1.9456,1.9474,1.9471,1.9412,1.944,1.9431,1.9412,1.9411,1.9382,1.9389,1.9371,1.9403,1.9425,1.9424,1.943,1.9401,1.9499,1.9508,1.9517,1.9547,1.9559,1.9411,1.9411,1.941,1.941,0,1.9575,1.9586,1.9611,1.9595,1.9596,1.9619,1.9579,1.9585,1.9555,1.9531,1.9554,1.9532,1.9527,1.9533,1.9503,1.9561,1.9545,1.9508,1.9455,1.9537,1.9564,1.9575,1.9418,1.9417,1.9415,1.9414,0,0,1.9712,1.9675,1.9685,1.9678,1.9653,1.9661,1.9683,1.9679,1.9685,1.9675,1.9691,1.97,1.9666,1.9661,1.963,1.965,1.9724,1.9611,1.961,1.9632,1.9786,1.9813,1.9827,1.9699,1.9701,1.9702,1.9788,0,1.9795,1.9829,1.9792,1.9833,1.9843,1.979,1.9809,1.9797,1.9776,1.9782,1.9759,1.9765,1.9721,1.9717,1.9736,1.9711,1.9754,1.9705,1.9712,1.9713,1.9717,1.9841,1.9868,1.9949,1.9798,1.98,1.9801,0,1.9895,1.9891,1.9934,1.991,1.9913,1.993,1.9925,1.9931,1.9917,1.9901,1.9897,1.9861,1.988,1.9831,1.9858,1.9825,1.9827,1.9816,1.9818,1.9815,1.976,1.984,1.9974,1.9986,1.9817,1.9816,1.9815,0,1.999,1.9996,2.0023,2.0019,1.9991,2.0004,1.9993,1.9977,1.9978,1.9974,1.9974,1.9973,1.9971,1.9971,1.9936,1.9904,1.9967,1.9915,1.9954,1.9955,1.9967,1.9966,2.0102,1.9972,1.9972,1.9971,1.9971,0,2.0085,2.0113,2.0065,2.0081,2.0112,2.0071,2.0102,2.0086,2.0072,2.0085,2.0039,2.0052,2.0006,2.0014,1.9987,2.0013,2.0013,2.0,1.9992,2.0003,2.0005,2.0001,1.9994,1.9975,1.9974,1.9973,1.9973,0,2.0194,2.0163,2.0189,2.0162,2.0156,2.0179,2.0156,2.017,2.0149,2.0165,2.0167,2.0132,2.0139,2.0106,2.0107,2.0089,2.0128,2.0112,2.0133,2.0127,2.0167,2.0164,2.0304,2.0321,2.0182,2.0183,2.0185,0,2.0255,2.0276,2.0252,2.0258,2.0249,2.0259,2.0261,2.0222,2.0226,2.0213,2.0229,2.0234,2.0234,2.0249,2.0224,2.0225,2.0207,2.0257,2.0207,2.0218,2.0207,2.0205,2.0207,2.0266,2.0268,2.0269,2.027,0,2.0367,2.0352,2.0356,2.0357,2.036,2.0358,2.0353,2.036,2.0319,2.0326,2.0334,2.0335,2.0338,2.0342,2.0339,2.0328,2.0293,2.0287,2.0296,2.0306,2.0317,2.0311,2.0159,2.0283,2.0282,2.0281,2.028,2.028,2.0453,2.0469,2.0456,2.0463,2.0456,2.0453,2.0466,2.0447,2.0453,2.0453,2.043,2.0443,2.0431,2.0423,2.0416,2.0425,2.0402,2.0415,2.0418,2.0421,2.0428,2.0318,2.0425,2.0424,2.0424,2.0424,2.0423,0,2.0562,2.0551,2.0559,2.0554,2.056,2.0529,2.0523,2.053,2.0542,2.0534,2.0537,2.0547,2.0553,2.053,2.0532,2.0544,2.0528,2.0546,2.0543,2.0542,2.0449,2.044,2.0559,2.0559,2.0559,2.0559,2.0559,2.0559,2.0619,2.0645,2.0629,2.0653,2.0642,2.0655,2.0654,2.0652,2.0645,2.0659,2.0664,2.065,2.0636,2.0638,2.0642,2.0635,2.0637,2.0661,2.0648,2.0561,2.0548,2.0535,2.0527,2.0662,2.0662,2.074,2.0741,2.0741]}]]